South Daytona, FL

8:39 PM EST on February 10, 2016 (GMT -0500)
Daytona Beach International

Weather History for KDAB - November, 2013

Change the Weather History Date:

Thursday, November 21, 2013

  Actual Average Record
Temperature  
Mean Temperature 73 °F 66 °F  
Max Temperature 75 °F 75 °F 84 °F (1996)
Min Temperature 70 °F 56 °F 30 °F (1937)
Degree Days  
Heating Degree Days 0 3  
Month to date heating degree days 2 36  
Since 1 July heating degree days 3 44  
Cooling Degree Days 8 3  
Month to date cooling degree days 144 91  
Year to date cooling degree days 3104 2887  
Growing Degree Days 21 (Base 50)    
Moisture  
Dew Point 68 °F    
Average Humidity 85    
Maximum Humidity 97    
Minimum Humidity 73    
Precipitation  
Precipitation 1.93 in 0.08 in 4.69 in (2015)
Month to date precipitation 2.60 1.94  
Year to date precipitation 45.85 46.24  
Sea Level Pressure  
Sea Level Pressure 30.20 in    
Wind  
Wind Speed 7 mph (East)    
Max Wind Speed 16 mph    
Max Gust Speed 18 mph    
Visibility 5 miles    
Events Rain    
T = Trace of Precipitation, MM = Missing Value Source: NWS Daily Summary

Daily Weather History Graph

Daily Weather History Graph

Search for Another Location

Airport or City:

Trip Planner

Search our weather history database for the weather conditions in past years. The results will help you decide how hot, cold, wet, or windy it might be!

Date:

Astronomy

Nov. 21, 2013 Rise Set
Actual Time 6:52 AM EST 5:27 PM EST
Civil Twilight 6:27 AM EST 5:52 PM EST
Nautical Twilight 5:58 AM EST 6:21 PM EST
Astronomical Twilight 5:30 AM EST 6:49 PM EST
Moon 9:00 PM EST (11/21) 10:00 AM EST (11/21)
Length of Visible Light 11h 25m
Length of Day
10h 34m
Waning Gibbous, 85% of the Moon is Illuminated
Nov 21
Waning Gibbous
Nov 25
Last Quarter
Dec 2
New
Dec 9
First Quarter
Dec 17
Full

Hourly Weather History & Observations

Time (EST) Temp. Dew Point Humidity Pressure Visibility Wind Dir Wind Speed Gust Speed Precip Events Conditions
12:53 AM 73.9 °F 66.0 °F 76% 30.14 in 10.0 mi East 9.2 mph - N/A   Overcast
1:53 AM 73.9 °F 66.0 °F 76% 30.14 in 10.0 mi East 8.1 mph - N/A   Overcast
2:53 AM 73.9 °F 64.9 °F 73% 30.15 in 10.0 mi East 9.2 mph - N/A   Overcast
3:53 AM 73.0 °F 66.0 °F 79% 30.14 in 10.0 mi ENE 11.5 mph - N/A   Overcast
4:53 AM 73.0 °F 66.9 °F 81% 30.15 in 10.0 mi ENE 11.5 mph - N/A   Overcast
5:09 AM 71.6 °F 66.2 °F 83% 30.15 in 5.0 mi Variable 3.5 mph - 0.00 in Rain Rain
5:37 AM 71.6 °F 68.0 °F 88% 30.17 in 4.0 mi East 6.9 mph - 0.02 in Rain Rain
5:45 AM 71.6 °F 68.0 °F 88% 30.17 in 2.5 mi East 5.8 mph 17.3 mph 0.04 in Rain Rain
5:53 AM 70.0 °F 68.0 °F 93% 30.17 in 2.0 mi ESE 8.1 mph 16.1 mph 0.06 in Rain Rain
6:02 AM 69.8 °F 68.0 °F 94% 30.17 in 1.0 mi ESE 9.2 mph 16.1 mph 0.05 in Rain Heavy Rain
6:21 AM 69.8 °F 66.2 °F 88% 30.18 in 0.8 mi ESE 10.4 mph 18.4 mph 0.50 in Rain Heavy Rain
6:32 AM 69.8 °F 68.0 °F 94% 30.18 in 2.0 mi East 8.1 mph - 0.80 in Rain Rain
6:53 AM 70.0 °F 68.0 °F 93% 30.19 in 2.5 mi East 9.2 mph - 0.90 in Rain Rain
7:08 AM 71.6 °F 68.0 °F 88% 30.19 in 5.0 mi East 8.1 mph - 0.01 in Rain Light Rain
7:53 AM 71.1 °F 69.1 °F 93% 30.20 in 5.0 mi East 4.6 mph - 0.02 in Rain Light Rain
7:59 AM 71.6 °F 69.8 °F 94% 30.21 in 4.0 mi East 5.8 mph - 0.00 in Rain Light Rain
8:06 AM 71.6 °F 68.0 °F 88% 30.21 in 2.5 mi East 5.8 mph - 0.01 in Rain Light Rain
8:53 AM 70.0 °F 68.0 °F 93% 30.22 in 2.5 mi East 8.1 mph - 0.10 in Rain Light Rain
9:00 AM 69.8 °F 68.0 °F 94% 30.22 in 2.5 mi ENE 13.8 mph 17.3 mph 0.01 in Rain Light Rain
9:25 AM 69.8 °F 68.0 °F 94% 30.23 in 2.5 mi ENE 9.2 mph - 0.07 in Rain Rain
9:32 AM 69.8 °F 68.0 °F 94% 30.23 in 1.0 mi ENE 9.2 mph - 0.15 in Rain Heavy Rain
9:53 AM 70.0 °F 68.0 °F 93% 30.24 in 1.5 mi East 11.5 mph - 0.37 in Rain Rain
10:01 AM 69.8 °F 68.0 °F 94% 30.24 in 1.5 mi East 8.1 mph - 0.03 in Rain Rain
10:31 AM 71.6 °F 69.8 °F 94% 30.24 in 3.0 mi East 8.1 mph - 0.10 in Rain Light Rain
10:53 AM 72.0 °F 69.1 °F 91% 30.24 in 3.0 mi ENE 13.8 mph - 0.10 in   Overcast
11:15 AM 71.6 °F 68.0 °F 88% 30.24 in 1.5 mi East 11.5 mph 16.1 mph 0.02 in Rain Heavy Rain
11:53 AM 71.1 °F 69.1 °F 93% 30.22 in 4.0 mi East 9.2 mph - 0.19 in Rain Rain
12:53 PM 72.0 °F 68.0 °F 87% 30.20 in 3.0 mi NE 6.9 mph - 0.04 in Rain Light Rain
1:07 PM 71.6 °F 68.0 °F 88% 30.20 in 2.5 mi Variable 4.6 mph - 0.03 in Rain Heavy Rain
1:53 PM 72.0 °F 69.1 °F 91% 30.19 in 2.5 mi Calm Calm - 0.13 in Rain Light Rain
2:12 PM 71.6 °F 69.8 °F 94% 30.18 in 4.0 mi ENE 6.9 mph - 0.01 in Rain Light Rain
2:53 PM 73.9 °F 69.1 °F 85% 30.17 in 8.0 mi ENE 10.4 mph - 0.02 in Rain Light Rain
3:53 PM 73.0 °F 69.1 °F 87% 30.17 in 9.0 mi ENE 9.2 mph - 0.00 in   Overcast
4:53 PM 73.0 °F 68.0 °F 84% 30.19 in 8.0 mi Calm Calm - N/A   Overcast
5:53 PM 72.0 °F 68.0 °F 87% 30.20 in 10.0 mi Variable 3.5 mph - N/A   Overcast
6:53 PM 73.0 °F 66.0 °F 79% 30.22 in 10.0 mi East 4.6 mph - N/A   Mostly Cloudy
7:53 PM 71.1 °F 66.0 °F 84% 30.22 in 10.0 mi Calm Calm - N/A   Mostly Cloudy
8:53 PM 70.0 °F 66.9 °F 90% 30.22 in 10.0 mi Calm Calm - N/A   Mostly Cloudy
9:53 PM 71.1 °F 66.9 °F 87% 30.23 in 9.0 mi Calm Calm - N/A   Overcast
10:53 PM 71.1 °F 68.0 °F 90% 30.23 in 8.0 mi Calm Calm - N/A   Overcast
11:53 PM 73.0 °F 68.0 °F 84% 30.22 in 10.0 mi East 6.9 mph - N/A   Overcast